Location: Diebersbach
(48.5163°N, 8.0558°E)
Time: 17:10:31
(UTC+00:00)

Cosmos 1242 Rocket - Visible Passes

Search period start: 17 October 2021 00:00
Search period end: 27 October 2021 00:00
Orbit: 445 x 482 km, 81.2° (Epoch: 16 October)

Date Brightness Start Highest point End Pass type
(mag) Time Alt. Az. Time Alt. Az. Time Alt. Az.
22 Oct 6.0 05:23:52 10° NE 05:24:11 10° ENE 05:24:30 10° ENE visible
25 Oct 5.4 05:22:35 10° NNE 05:25:13 18° ENE 05:27:49 10° ESE visible
26 Oct 5.8 04:52:29 10° NE 04:53:36 11° ENE 04:54:43 10° E visible
